Regional Weather Roundup
Issued by NWS San Angelo, TX

Home | Current Version | Previous Version | Text Only | Print | Product List | Glossary Off
Versions: 1 2 3 4 5 6 7 8 9 10 11 12 13 14 15 16 17 18 19 20 21 22 23 24 25 26 27 28 29 30 31 32 33 34 35 36 37 38 39 40 41 42 43 44 45 46 47 48 49 50

000
ASUS44 KSJT 270810
RWRSJT
WEST CENTRAL TEXAS REGIONAL WEATHER ROUNDUP
NATIONAL WEATHER SERVICE SAN ANGELO TX
200 AM CST THU NOV 27 2014

NOTE: "FAIR" INDICATES FEW OR NO CLOUDS BELOW 12,000 FEET WITH NO
SIGNIFICANT WEATHER AND/OR OBSTRUCTIONS TO VISIBILITY.

TXZ049-054-064>066-071>073-076>078-098-099-113-114-127-128-139-140-
154-155-168>170-270900
...LOCATIONS ACROSS WEST CENTRAL TEXAS...

CITY           SKY/WX    TMP DP  RH WIND       PRES   REMARKS
SAN ANGELO     CLEAR     39  33  79 N5        30.40S WCI  36
ABILENE        CLEAR     38  34  85 CALM      30.43R
DYESS AFB      CLEAR     37  31  81 SW3       30.42R
JUNCTION       CLEAR     37  30  75 CALM      30.40R
SWEETWATER     CLEAR     45  33  64 NE5       30.45R
BROWNWOOD      CLEAR     39  34  81 N3        30.42R
COLEMAN        SUNNY     40  36  83 N3        30.41S
SONORA         CLEAR     39  30  70 CALM      30.43R
OZONA          FAIR      36  30  80 N6        30.42R WCI  31
BRADY          CLEAR     43  34  70 NE6       30.39R WCI  39
$$

TEXAS PANHANDLE/OKLAHOMA PANHANDLE

CITY           SKY/WX    TMP DP  RH WIND       PRES   REMARKS
AMARILLO       CLEAR     28  20  71 SE10      30.42R WCI  19
BORGER         PTCLDY    34  19  54 CALM      30.42F
CANADIAN       PTCLDY    23  19  84 CALM      30.44F
DALHART        PTCLDY    25  18  74 S9        30.39F WCI  15
DUMAS            N/A     26  18  71 S8        30.39F WCI  18
GUYMON         NOT AVBL
HEREFORD       SUNNY     25  19  80 MISG      30.42R
PAMPA          SUNNY     28  18  68 SE8       30.43R WCI  19
PERRYTON       PTCLDY    23  16  73 SE6       30.41F WCI  16
$$

SOUTHERN PANHANDLE/SOUTH PLAINS/ROLLING PLAINS

CITY           SKY/WX    TMP DP  RH WIND       PRES   REMARKS
LUBBOCK        PTCLDY    34  23  64 E7        30.40S WCI  28
SNYDER         CLEAR     40  33  73 E6        30.42S WCI  36
CHILDRESS      CLEAR     37  21  52 E6        30.47R WCI  32
SEMINOLE       SUNNY     36  30  79 CALM      30.41S
$$

PERMIAN BASIN

CITY           SKY/WX    TMP DP  RH WIND       PRES   REMARKS
MIDLAND        CLEAR     42  31  64 E6        30.39S WCI  38
ODESSA         CLEAR     38  29  70 E7        30.40R WCI  33
WINK           CLEAR     35  24  64 N6        30.37R WCI  30
$$

FAR WEST/SOUTHWEST MOUNTAINS/TRANS PECOS

CITY           SKY/WX    TMP DP  RH WIND       PRES   REMARKS
ALPINE         MOSUNNY   35  22  59 SW8       30.43S WCI  29
DRYDEN           N/A     48  30  49 N12       30.35R
EL PASO        CLEAR     43  20  39 SW3       30.35R
FORT STOCKTON  PTCLDY    47  26  44 SE8       30.36S
GUADALUPE PASS NOT AVBL
MARFA          PTCLDY    28  19  69 N8        30.39S WCI  20
PECOS          SUNNY     40  28  61 NE8       30.37R WCI  35
$$

DALLAS/FORT WORTH METROPLEX

CITY           SKY/WX    TMP DP  RH WIND       PRES   REMARKS
DFW AIRPORT    CLEAR     44  28  53 N10       30.44R WCI  39
FTW MEACHAM    CLEAR     44  29  55 N8        30.44R WCI  39
DAL-EXECUTIVE  CLEAR     45  26  47 N6        30.43R
GRAND PRAIRIE  CLEAR     46  30  52 N8        30.45R
ADDISON        CLEAR     45  31  57 N5        30.45R
MESQUITE       SUNNY     46  26  47 N9G18     30.42R
LANCASTER      SUNNY     44  26  49 CALM      30.44R
$$

NORTH CENTRAL TEXAS

CITY           SKY/WX    TMP DP  RH WIND       PRES   REMARKS
SHRMAN/DENISON SUNNY     42  31  64 N14       30.45S WCI  35
GAINESVILLE    NOT AVBL
BRIDGEPORT     SUNNY     39  30  68 N3        30.47R
DENTON         CLEAR     39  28  64 CALM      30.45R
WAXAHACHIE     SUNNY     41  32  70 NW3       30.44R
GRANBURY       SUNNY     41  34  75 W3        30.45R
$$

WESTERN NORTH TEXAS

CITY           SKY/WX    TMP DP  RH WIND       PRES   REMARKS
WICHITA FALLS  CLEAR     35  27  72 NE7       30.46R WCI  29
VERNON         MOSUNNY   36  27  69 N6        30.48R WCI  31
BRECKENRIDGE   SUNNY     38  33  82 NE5       30.44R WCI  35
COMANCHE       CLEAR     43  37  78 N3        30.42R
$$

CENTRAL AND SOUTH CENTRAL TEXAS

CITY           SKY/WX    TMP DP  RH WIND       PRES   REMARKS
AUSTIN/BERGSTM CLEAR     37  34  89 N6        30.39R WCI  32
WACO           CLEAR     44  37  76 N8        30.40S WCI  39
HILLSBORO      SUNNY     46  32  59 N9        30.41R
TEMPLE         CLEAR     43  32  65 N7        30.39R WCI  39
KILLEEN-GRAY   CLEAR     43  36  76 N12       30.40R WCI  36
FORT HOOD      CLEAR     50  34  54 N7        30.40R
GEORGETOWN     CLEAR     43  34  70 N6        30.40R WCI  39
LAGO VISTA     FAIR      50  36  58 NE10      30.38R
SAN MARCOS     CLEAR     46  36  66 N9        30.38S
NEW BRAUNFELS  CLEAR     53  34  48 NE14      30.36R
RANDOLPH AFB   CLEAR     51  33  49 NE9       30.37R
SAN ANTONIO    CLEAR     51  35  54 N3        30.37R
STINSON        CLEAR     54  33  45 N5        30.35R
PLEASANTON     NOT AVBL
LA GRANGE      CLEAR     47  40  76 CALM      30.36R
GIDDINGS       SUNNY     51  34  52 N5        30.41R
$$

EAST TEXAS

CITY           SKY/WX    TMP DP  RH WIND       PRES   REMARKS
PARIS          CLEAR     39  25  56 NW7       30.44R WCI  34
CLARKSVILLE    NOT AVBL
TYLER          CLEAR     47  29  49 N8        30.40R
LONGVIEW       CLEAR     47  30  51 N10       30.38R
PALESTINE      SUNNY     43  35  74 N7        30.40S WCI  39
NACOGDOCHES    CLEAR     39  34  81 CALM      30.38R
$$

TEXAS HILL COUNTRY AND EDWARDS PLATEAU

CITY           SKY/WX    TMP DP  RH WIND       PRES   REMARKS
LLANO          SUNNY     37  34  87 N3        30.44R
HORSESHOE BAY  FAIR      38  34  86 CALM      30.40S
KERRVILLE      CLEAR     38  33  82 CALM      30.39R
FREDERICKSBRG  CLEAR     37  33  87 CALM      30.38R
ROCKSPRINGS    SUNNY     46  32  57 MISG      30.39R
HONDO          CLEAR     41  32  70 N9        30.37R WCI  35
UVALDE         SUNNY     48  32  54 NE5       30.36R
DEL RIO        CLEAR     44  35  70 W3        30.34R
$$

SOUTHEAST TEXAS

CITY           SKY/WX    TMP DP  RH WIND       PRES   REMARKS
COLLEGE STN    CLEAR     52  36  54 N8        30.38R
CALDWELL       SUNNY     46  34  61 N5        30.41R
CROCKETT       SUNNY     50  39  66 N7        30.41R
BRENHAM        CLEAR     45  40  80 CALM      30.38S
HUNTSVILLE     CLEAR     46  36  68 N3        30.37R
CONROE         CLEAR     41  39  93 N3        30.37R
HOUSTON BUSH   CLEAR     49  40  71 CALM      30.36R
HOUSTON HOBBY  CLEAR     50  45  83 N6        30.36R
PERLAND        CLEAR     50  45  83 NE7       30.37R
WHARTON        SUNNY     48  45  88 NW3       30.36S
$$

THE UPPER TEXAS COAST

CITY           SKY/WX    TMP DP  RH WIND       PRES   REMARKS
ORANGE         SUNNY     43  43 100 CALM      30.37R
PORT ARTHUR    CLEAR     46  42  86 NW3       30.35R
GALVESTON      CLEAR     56  52  86 NW7       30.35R
ANGLETON       CLEAR     43  43 100 N3        30.35R
BAY CITY         N/A     48  48 100 N5        30.35R
$$

TEXAS COASTAL BEND, RIO GRANDE PLAINS DEEP SOUTH TEXAS

CITY           SKY/WX    TMP DP  RH WIND       PRES   REMARKS
VICTORIA       CLEAR     48  44  86 N6        30.35R
BEEVILLE       FAIR      49  43  79 CALM      30.33R
ROCKPORT       CLEAR     56  52  86 SW6       30.32S
PORT ARANSAS   SUNNY     57  54  88 SW5       30.32S
PORT LAVACA    NOT AVBL
CORPUS CHRISTI CLEAR     50  49  96 CALM      30.33R
KINGSVILLE NAS CLEAR     48  45  89 S3        30.33R
COTULLA        CLEAR     51  34  52 NE6       30.33R
LAREDO         CLEAR     53  37  54 SE5       30.33R
BROWNSVILLE    FOG       52  52 100 S3        30.31S VSB 1/4
PORT ISABEL    CLEAR     54  53  97 S5        30.31S
HEBBRONVILLE   SUNNY     50  39  67 CALM      30.32R
MCALLEN        CLEAR     51  48  89 SE3       30.31S
WESLACO        CLEAR     53  49  89 CALM      30.31S
FALFURRIAS     SUNNY     46  42  87 CALM      30.32S
EDINBURG       SUNNY     51  48  90 CALM      30.31S
$$


USA.gov is the U.S. government's official web portal to all federal, state and local government web resources and services.